Flag for U.S.A. Weather past 2 weeks in Scottsdale, Arizona, U.S.A.

Now
69 °F

Sunny.


Feels Like: 69 °F
Forecast: 61 / 76 °F
Wind: 7 mph from Southeast

Location: Scottsdale Airport

Current Time: May 22, 2015 at 9:38:32 AM

Latest Report: May 22, 2015 at 8:53 AM


Visibility: 10 mi

Pressure: 29.86 "Hg

Humidity: 32%

Dew point: 38 °F

Location of ScottsdaleLocation

Historic Weather in Scottsdale — Graph

°F

Scottsdale temperature yesterday

Maximum temperature yesterday: 86 °F (at 3:53 PM)
Minimum temperature yesterday: 70 °F (at 4:53 AM)
Average temperature yesterday: 77 °F

Past Weeks' High & Low Weather Summary

 TemperatureHumidityPressure
High92 °F (May 11, 5:53 PM)93% (May 15, 4:53 PM)29.98 "Hg (May 15, 4:53 PM)
Low54 °F (May 9, 3:53 AM)7% (May 11, 3:53 PM)29.64 "Hg (May 7, 5:53 PM)
Average73 °F32%29.83 "Hg
* Reported May 7 7:53 AM — May 22 7:53 AM, Scottsdale, Weather by CustomWeather, © 2015

Note: Actual official high and low records may vary slightly from our data, if they occured in-between our weather recording intervals... More about our weather records

Advertising

Scottsdale weather history for previous 24 hours

 ConditionsComfort  
Time TempWeatherWind HumidityBarometerVisibility
7:53 AM
Fri, May 22
68 °FSunny.5 mph36%29.85 "Hg10 mi
6:53 AM65 °FSunny.3 mph40%29.84 "Hg10 mi
5:53 AM65 °FSunny.No wind36%29.84 "Hg10 mi
4:53 AM65 °FClear.No wind34%29.83 "Hg10 mi
3:53 AM67 °FClear.3 mph29%29.82 "Hg10 mi
2:53 AM68 °FClear.5 mph27%29.82 "Hg10 mi
1:53 AM69 °FClear.No wind24%29.82 "Hg10 mi
12:53 AM69 °FClear.5 mph25%29.82 "Hg10 mi
11:53 PM
Thu, May 21
70 °FClear.No wind30%29.81 "Hg10 mi
10:53 PM73 °FClear.No wind26%29.79 "Hg10 mi
9:53 PM75 °FClear.5 mph20%29.79 "Hg10 mi
8:53 PM77 °FClear.6 mph17%29.76 "Hg10 mi
7:53 PM78 °FClear.10 mph15%29.73 "Hg10 mi
6:53 PM81 °FSunny.14 mph13%29.71 "Hg10 mi
5:53 PM83 °FSunny.14 mph14%29.70 "Hg10 mi
4:53 PM86 °FSunny.12 mph11%29.68 "Hg10 mi
3:53 PM86 °FSunny.9 mph12%29.69 "Hg10 mi
2:53 PM85 °FSunny.13 mph12%29.72 "Hg10 mi
1:53 PM84 °FSunny.9 mph12%29.74 "Hg10 mi
12:53 PM85 °FSunny.13 mph12%29.75 "Hg10 mi
11:53 AM83 °FSunny.10 mph16%29.77 "Hg10 mi
10:53 AM79 °FSunny.6 mph20%29.79 "Hg10 mi
9:53 AM79 °FSunny.8 mph21%29.79 "Hg10 mi
Weather by CustomWeather, © 2015

See weather overviewHow to use our weather pages